Home > Weather > Pointe-Noire > Past weeks

Flag for Congo Past Weather in Pointe-Noire, Congo — Yesterday and Last 2 Weeks

Now
75 °F

Clear.


Feels Like: 75 °F
Forecast: 71 / 81 °F
Wind: 3 mph from North

Location: Pointe Airport-Noire

Current Time: Jun 29, 2016 at 9:00:21 PM

Latest Report: Jun 29, 2016 at 8:00 PM


Visibility: 4 mi

Pressure: 29.98 "Hg

Humidity: 83%

Dew Point: 70 °F

Location of Pointe-NoireLocation

Past Weather in Pointe-Noire — Graph

°F

Pointe-Noire Temperature Yesterday

Maximum temperature yesterday: 79 °F (at 11:00 AM)
Minimum temperature yesterday: 73 °F (at 12:00 AM)
Average temperature yesterday: 76 °F

High & Low Weather Summary for the Past Weeks

 TemperatureHumidityPressure
High82 °F (Jun 16, 2:00 PM)100% (Jun 15, 4:00 AM)32.90 "Hg (Jun 15, 4:00 AM)
Low70 °F (Jun 15, 4:00 AM)25% (Jun 15, 6:00 PM)29.86 "Hg (Jun 24, 3:00 PM)
Average76 °F85%30.00 "Hg
* Reported Jun 14 7:00 PM — Jun 29 7:00 PM, Pointe-Noire, Weather by CustomWeather, © 2016

Note: Actual official high and low records may vary slightly from our data, if they occured in-between our weather recording intervals... More about our weather records

Advertising

Pointe-Noire Weather History for the Previous 24 Hours

Scroll right to see more
 ConditionsComfort  
Time TempWeatherWind HumidityBarometerVisibility
7:00 PM
Wed, Jun 29
75 °FClear.5 mph89%29.95 "Hg4 mi
6:00 PM77 °FClear.6 mph79%29.95 "Hg4 mi
5:00 PM79 °FClear.8 mph74%29.92 "Hg4 mi
4:00 PM79 °FClear.8 mph74%29.92 "HgN/A
3:00 PM79 °FClear.8 mph79%29.95 "HgN/A
2:00 PM81 °FClear.10 mph66%29.95 "HgN/A
1:00 PM81 °FPassing clouds.N/A66%29.98 "HgN/A
12:00 PM82 °FScattered clouds.7 mph66%29.98 "Hg6 mi
11:00 AM79 °FScattered clouds.5 mph79%30.01 "Hg6 mi
10:00 AM79 °FPartly sunny.6 mph74%30.04 "Hg6 mi
9:00 AM75 °FFog.6 mph89%30.04 "Hg3 mi
8:00 AM72 °FMild.5 mph100%30.01 "Hg1 mi
7:00 AM70 °FFog.3 mph100%30.01 "Hg1 mi
6:00 AM70 °FFog.3 mph100%29.98 "Hg2 mi
5:00 AM72 °FFog.2 mph94%29.98 "Hg2 mi
4:00 AM72 °FFog.2 mph94%29.98 "Hg2 mi
3:00 AM72 °FFog.2 mph94%29.98 "Hg2 mi
2:00 AM72 °FFog.2 mph100%30.01 "Hg2 mi
1:00 AM73 °FFog.3 mph94%30.01 "Hg2 mi
12:00 AM73 °FFog.2 mph94%30.04 "Hg3 mi
11:00 PM
Tue, Jun 28
75 °FClear.1 mph94%30.04 "Hg4 mi
10:00 PM75 °FPassing clouds.1 mph94%30.01 "Hg4 mi
9:00 PM75 °FPassing clouds.5 mph94%30.01 "Hg4 mi
Weather by CustomWeather, © 2016

See weather overviewHow to use our weather pages